Hourly Weather Roundup
Issued by NWS Central Illinois

Home | Current Version | Previous Version | Text Only | Print | Product List | Glossary On
Versions: 1 2 3 4 5 6 7 8 9 10 11 12 13 14 15 16 17 18 19 20 21 22 23 24 25 26 27 28 29 30 31 32 33 34 35 36 37 38 39 40 41 42 43 44 45 46 47 48 49 50
000
NZUS43 KILX 230610
HWRILX

AREA WEATHER ROUNDUP
NATIONAL WEATHER SERVICE, LINCOLN IL
100 AM CDT WED JUL 23 2014


CITY           SKY/WX    TMP DP  RH WIND       PRES   REMARKS
BLOOMINGTON    PTCLDY    76  71  84 SW8       30.02S
CHAMPAIGN      MOCLDY    75  69  81 SW7       30.02R
6HR MIN TEMP:  75; 6HR MAX TEMP:  82;

DECATUR        NOT AVBL
FLORA          CLEAR     70  68  93 S3        30.03F
6HR MIN TEMP:  69; 6HR MAX TEMP:  84;

GALESBURG      MOCLDY    75  75  98 NW6       30.04R
JACKSONVILLE   MOCLDY    78  75  91 CALM      30.03R HX  81
6HR MIN TEMP:  78; 6HR MAX TEMP:  84;

LACON          CLOUDY    78  74  87 NW5       30.00R HX  81
6HR MIN TEMP:  77; 6HR MAX TEMP:  83;

LAWRENCEVILLE  CLEAR     71  68  90 S5        30.03F FOG
6HR MIN TEMP:  71; 6HR MAX TEMP:  86;

LITCHFIELD     CLOUDY    74  70  87 S5        30.02S
$$


CITY           SKY/WX    TMP DP  RH WIND       PRES   REMARKS
LINCOLN        CLEAR     77  72  83 CALM      29.98S
6HR MIN TEMP:  75; 6HR MAX TEMP:  85;

MACOMB         PTCLDY    74  74  99 NW7       30.05S FOG
MATTOON        MOCLDY    76  68  76 SW7       30.01S
6HR MIN TEMP:  76; 6HR MAX TEMP:  84; 6HR PCP: TRACE;

MT CARMEL AP   PTCLDY    70  68  94 CALM      30.03F FOG
OLNEY-NOBLE AP PTCLDY    70  68  94 CALM      30.03F FOG
PARIS          PTCLDY    72  68  89 SW3       30.02S
6HR MIN TEMP:  71; 6HR MAX TEMP:  82;

PEORIA         PTCLDY    81  74  79 W6        30.01R HX  86
6HR MIN TEMP:  80; 6HR MAX TEMP:  84;

PONTIAC        PTCLDY    77  75  94 W3        29.99S FOG
RANTOUL        MOCLDY    76  70  81 SW5       30.02R
6HR MIN TEMP:  76; 6HR MAX TEMP:  83;

ROBINSON       CLEAR     71  69  94 CALM      30.03F FOG
6HR MIN TEMP:  71; 6HR MAX TEMP:  84;

SPRINGFIELD    MOCLDY    79  72  79 CALM      30.01S HX  82
6HR MIN TEMP:  79; 6HR MAX TEMP:  84;

TAYLORVILLE    CLOUDY    73  68  83 S3        30.01S
$$

...REGIONAL REPORTS...


CITY           SKY/WX    TMP DP  RH WIND       PRES   REMARKS
CHICAGO O`HARE CLOUDY    74  63  68 NE18G24   30.02R
KANKAKEE       PTCLDY    75  73  96 SW3       29.99F FOG
MOLINE         CLEAR     78  69  73 N6        30.04R HX  80
MOUNT VERNON   PTCLDY    72  66  83 CALM      30.04F
PITTSFIELD     MOCLDY    78  75  90 CALM      30.03R FOG     HX  80
QUINCY         PTCLDY    79  76  90 NE3       30.03R HX  83
ROCKFORD       PTCLDY    77  64  64 NE18      30.05R
$$


CITY           SKY/WX    TMP DP  RH WIND       PRES   REMARKS
BURLINGTON     MOCLDY    78  72  81 N9        30.04R HX  80
CEDAR RAPIDS   CLEAR     70  65  84 N9        30.08R
DES MOINES     CLEAR     75  62  64 N10       30.13R
KIRKSVILLE     PTCLDY    77  71  82 N9        30.10R
OTTUMWA        CLEAR     71  68  90 NW9       30.10R
ST LOUIS       MOCLDY    83  72  69 S5        30.01S HX  88
$$


CITY           SKY/WX    TMP DP  RH WIND       PRES   REMARKS
TERRE HAUTE    CLEAR     72  68  87 S3        30.02F
EVANSVILLE     CLEAR     76  70  82 CALM      30.04S
INDIANAPOLIS   MOCLDY    73  68  84 W6        30.02F
LAFAYETTE      CLOUDY    73  70  90 CALM      30.01R
MADISON        CLEAR     71  62  73 NE15      30.09R
MILWAUKEE      CLOUDY    63  57  81 NE13      30.09R
$$




USA.gov is the U.S. government's official web portal to all federal, state and local government web resources and services.